Weather History for KOUN - January, 2013

Change the Weather History Date:

Sunday, January 27, 2013

  Actual Average Record
Temperature  
Mean Temperature 55 °F -  
Max Temperature 68 °F 51 °F 77 °F (2015)
Min Temperature 42 °F 28 °F 1 °F (1963)
Degree Days  
Heating Degree Days 10    
Growing Degree Days 5 (Base 50)    
Moisture  
Dew Point 52 °F    
Average Humidity 93    
Maximum Humidity 100    
Minimum Humidity 73    
Precipitation  
Precipitation 0.00 in - - ()
Sea Level Pressure  
Sea Level Pressure 29.94 in    
Wind  
Wind Speed 14 mph (SSE)    
Max Wind Speed 21 mph    
Max Gust Speed 29 mph    
Visibility 6 miles    
Events Rain    
Averages and records for this station are not official NWS values.
T = Trace of Precipitation, MM = Missing Value Source: NWS Daily Summary

Daily Weather History Graph

Daily Weather History Graph

Search for Another Location

Airport or City:

Trip Planner

Search our weather history database for the weather conditions in past years. The results will help you decide how hot, cold, wet, or windy it might be!

Date:

Astronomy

Jan. 27, 2013 Rise Set
Actual Time 7:32 AM CST 5:53 PM CST
Civil Twilight 7:05 AM CST 6:20 PM CST
Nautical Twilight 6:34 AM CST 6:50 PM CST
Astronomical Twilight 6:04 AM CST 7:21 PM CST
Moon 6:44 PM CST (1/27) 7:29 AM CST (1/27)
Length of Visible Light 11h 14m
Length of Day
10h 21m
Full, 100% of the Moon is Illuminated
Jan 27
Full
Feb 3
Last Quarter
Feb 10
New
Feb 17
First Quarter
Feb 25
Full

Hourly Weather History & Observations

Time (CST) Temp. Windchill Dew Point Humidity Pressure Visibility Wind Dir Wind Speed Gust Speed Precip Events Conditions
12:15 AM 42.8 °F 38.0 °F 42.8 °F 100% 30.07 in 2.5 mi SSE 8.1 mph - N/A   Overcast
12:35 AM 42.8 °F 38.0 °F 42.8 °F 100% 30.06 in 2.0 mi SSE 8.1 mph - N/A   Overcast
12:55 AM 42.8 °F 37.5 °F 42.8 °F 100% 30.05 in 1.5 mi SSE 9.2 mph - N/A   Overcast
1:15 AM 42.8 °F 36.6 °F 42.8 °F 100% 30.04 in 1.0 mi SSE 11.5 mph - N/A   Overcast
1:35 AM 42.8 °F 35.8 °F 42.8 °F 100% 30.03 in 0.8 mi SSE 13.8 mph - N/A   Overcast
1:55 AM 42.8 °F 35.8 °F 42.8 °F 100% 30.03 in 0.8 mi SSE 13.8 mph - N/A   Overcast
2:15 AM 42.8 °F 35.4 °F 42.8 °F 100% 30.02 in 0.8 mi SSE 15.0 mph - N/A Rain Light Rain
2:35 AM 42.8 °F 35.1 °F 42.8 °F 100% 30.03 in 0.5 mi SSE 16.1 mph 24.2 mph N/A Rain Light Rain
2:55 AM 42.8 °F 36.2 °F 42.8 °F 100% 30.04 in 0.5 mi SSE 12.7 mph - N/A   Light Drizzle
3:15 AM 42.8 °F 35.1 °F 42.8 °F 100% 30.04 in 0.5 mi SSE 16.1 mph 19.6 mph N/A   Light Drizzle
3:35 AM 42.8 °F 34.5 °F 42.8 °F 100% 30.02 in 0.5 mi SSE 18.4 mph - N/A   Drizzle
3:55 AM 42.8 °F 35.1 °F 42.8 °F 100% 30.02 in 0.5 mi SSE 16.1 mph 20.7 mph N/A   Light Drizzle
4:15 AM 42.8 °F 34.5 °F 42.8 °F 100% 30.01 in 0.5 mi SSE 18.4 mph - N/A   Drizzle
4:35 AM 42.8 °F 34.5 °F 42.8 °F 100% 30.01 in 0.5 mi SSE 18.4 mph - N/A   Drizzle
4:55 AM 42.8 °F 35.8 °F 42.8 °F 100% 30.01 in 0.5 mi South 13.8 mph - N/A   Light Drizzle
5:15 AM 42.8 °F 35.8 °F 42.8 °F 100% 30.01 in 0.5 mi South 13.8 mph - N/A Rain Light Rain
5:35 AM 42.8 °F 35.4 °F 42.8 °F 100% 30.01 in 0.5 mi South 15.0 mph - N/A   Light Drizzle
5:55 AM 44.6 °F 38.1 °F 44.6 °F 100% 30.00 in 0.5 mi South 13.8 mph - N/A   Light Drizzle
6:15 AM 44.6 °F 37.8 °F 44.6 °F 100% 30.00 in 0.5 mi SSE 15.0 mph 19.6 mph N/A   Light Drizzle
6:35 AM 44.6 °F 37.2 °F 44.6 °F 100% 29.99 in 0.5 mi SSE 17.3 mph 21.9 mph N/A   Drizzle
6:55 AM 44.6 °F 36.9 °F 44.6 °F 100% 29.99 in 0.5 mi SSE 18.4 mph - N/A   Light Drizzle
7:15 AM 44.6 °F 37.8 °F 44.6 °F 100% 30.00 in 0.5 mi South 15.0 mph - N/A   Light Drizzle
7:55 AM 46.4 °F 39.2 °F 46.4 °F 100% 29.98 in 0.5 mi SSE 18.4 mph 25.3 mph N/A   Light Drizzle
8:15 AM 46.4 °F 39.8 °F 46.4 °F 100% 29.99 in 0.5 mi South 16.1 mph 21.9 mph N/A   Light Drizzle
8:35 AM 48.2 °F - 48.2 °F 100% 29.99 in 0.8 mi South 17.3 mph - N/A   Overcast
8:55 AM 48.2 °F - 48.2 °F 100% 29.98 in 0.8 mi South 13.8 mph - N/A Rain Light Rain
9:15 AM 50.0 °F - 50.0 °F 100% 29.98 in 1.5 mi South 12.7 mph - N/A   Overcast
9:35 AM 50.0 °F - 50.0 °F 100% 29.98 in 1.0 mi South 12.7 mph 18.4 mph N/A   Overcast
9:55 AM 50.0 °F - 50.0 °F 100% 29.98 in 2.5 mi South 17.3 mph 26.5 mph N/A   Overcast
10:15 AM 51.8 °F - 51.8 °F 100% 29.99 in 4.0 mi South 20.7 mph 25.3 mph N/A   Overcast
10:35 AM 51.8 °F - 51.8 °F 100% 29.98 in 4.0 mi South 19.6 mph 26.5 mph N/A   Overcast
10:55 AM 53.6 °F - 53.6 °F 100% 29.98 in 5.0 mi SSE 18.4 mph 24.2 mph N/A   Overcast
11:15 AM 53.6 °F - 53.6 °F 100% 29.98 in 5.0 mi South 15.0 mph 26.5 mph N/A   Overcast
11:35 AM 55.4 °F - 55.4 °F 100% 29.97 in 7.0 mi South 19.6 mph 25.3 mph N/A   Overcast
11:55 AM 55.4 °F - 55.4 °F 100% 29.96 in 10.0 mi South 17.3 mph 24.2 mph N/A   Overcast
12:15 PM 57.2 °F - 55.4 °F 94% 29.96 in 10.0 mi South 12.7 mph 19.6 mph N/A   Overcast
12:35 PM 59.0 °F - 55.4 °F 88% 29.94 in 10.0 mi South 12.7 mph 19.6 mph N/A   Overcast
12:55 PM 59.0 °F - 57.2 °F 94% 29.93 in 10.0 mi SSE 17.3 mph 24.2 mph N/A   Overcast
1:15 PM 60.8 °F - 57.2 °F 88% 29.91 in 10.0 mi South 12.7 mph - N/A   Overcast
1:35 PM 60.8 °F - 57.2 °F 88% 29.90 in 10.0 mi SSE 15.0 mph 21.9 mph N/A   Overcast
1:55 PM 60.8 °F - 57.2 °F 88% 29.89 in 10.0 mi South 12.7 mph - N/A   Overcast
2:15 PM 62.6 °F - 57.2 °F 82% 29.88 in 10.0 mi South 18.4 mph - N/A   Overcast
2:35 PM 62.6 °F - 57.2 °F 82% 29.88 in 10.0 mi South 15.0 mph 18.4 mph N/A   Overcast
2:55 PM 62.6 °F - 57.2 °F 82% 29.87 in 10.0 mi South 16.1 mph 20.7 mph N/A   Overcast
3:15 PM 62.6 °F - 59.0 °F 88% 29.87 in 10.0 mi South 12.7 mph 24.2 mph N/A   Overcast
3:35 PM 64.4 °F - 59.0 °F 83% 29.87 in 10.0 mi South 19.6 mph 25.3 mph N/A   Overcast
3:55 PM 66.2 °F - 59.0 °F 78% 29.86 in 10.0 mi South 20.7 mph 28.8 mph N/A   Mostly Cloudy
4:15 PM 68.0 °F - 59.0 °F 73% 29.86 in 10.0 mi SSE 17.3 mph - N/A   Mostly Cloudy
4:35 PM 68.0 °F - 59.0 °F 73% 29.85 in 10.0 mi SSE 17.3 mph 23.0 mph N/A   Mostly Cloudy
4:55 PM 66.2 °F - 59.0 °F 78% 29.85 in 10.0 mi South 18.4 mph 23.0 mph N/A   Scattered Clouds
5:15 PM 66.2 °F - 59.0 °F 78% 29.85 in 10.0 mi SSE 15.0 mph - N/A   Clear
5:35 PM 64.4 °F - 57.2 °F 77% 29.86 in 10.0 mi South 15.0 mph - N/A   Clear
5:55 PM 64.4 °F - 57.2 °F 77% 29.85 in 10.0 mi SSE 12.7 mph - N/A   Clear
6:15 PM 62.6 °F - 57.2 °F 82% 29.85 in 10.0 mi SE 11.5 mph 18.4 mph N/A   Clear
6:35 PM 62.6 °F - 57.2 °F 82% 29.86 in 10.0 mi SSE 13.8 mph 19.6 mph N/A   Clear
6:55 PM 60.8 °F - 59.0 °F 94% 29.86 in 10.0 mi SSE 15.0 mph - N/A   Clear
7:15 PM 60.8 °F - 59.0 °F 94% 29.87 in 10.0 mi SSE 13.8 mph 21.9 mph N/A   Clear
7:35 PM 60.8 °F - 59.0 °F 94% 29.87 in 10.0 mi SSE 16.1 mph - N/A   Clear
7:55 PM 60.8 °F - 57.2 °F 88% 29.87 in 10.0 mi SSE 12.7 mph - N/A   Clear
8:15 PM 60.8 °F - 59.0 °F 94% 29.87 in 10.0 mi SSE 16.1 mph 20.7 mph N/A   Clear
8:35 PM 60.8 °F - 59.0 °F 94% 29.87 in 10.0 mi SSE 16.1 mph 23.0 mph N/A   Clear
8:55 PM 60.8 °F - 57.2 °F 88% 29.87 in 10.0 mi SSE 17.3 mph 21.9 mph N/A   Clear
9:15 PM 60.8 °F - 57.2 °F 88% 29.87 in 10.0 mi SSE 16.1 mph 21.9 mph N/A   Scattered Clouds
9:35 PM 60.8 °F - 57.2 °F 88% 29.87 in 10.0 mi SSE 17.3 mph - N/A   Scattered Clouds
9:55 PM 60.8 °F - 57.2 °F 88% 29.88 in 10.0 mi SSE 16.1 mph 19.6 mph N/A   Overcast
10:15 PM 60.8 °F - 57.2 °F 88% 29.88 in 10.0 mi SSE 15.0 mph 19.6 mph N/A   Overcast
10:35 PM 60.8 °F - 57.2 °F 88% 29.89 in 10.0 mi South 12.7 mph 18.4 mph N/A   Overcast
10:55 PM 62.6 °F - 57.2 °F 82% 29.89 in 10.0 mi South 13.8 mph - N/A   Overcast
11:15 PM 62.6 °F - 57.2 °F 82% 29.89 in 10.0 mi South 15.0 mph 19.6 mph N/A   Overcast
11:35 PM 62.6 °F - 57.2 °F 82% 29.89 in 10.0 mi South 12.7 mph 18.4 mph N/A   Overcast
11:55 PM 62.6 °F - 57.2 °F 82% 29.89 in 10.0 mi South 12.7 mph - N/A   Overcast